Simultaneous Nadir Overpasses (SNOs) Predictions

Prediction of SNOs between METOP-A and NOAA-19 Satellite Orbit:

Table of predicted SNOs for the next 14.0 days since TLE Epoch: 12/28/2013
Index Date (METOP-A) Time (METOP-A) Lat,Lon (METOP-A) SZA (METOP-A ) Date (NOAA-19) Time (NOAA-19) Lat,Lon (NOAA-19) SZA (NOAA-19 ) Distance(km) Time Diff (sec)
1 01/06/2014 06:51:44 -74.31,-107.86 83.20 01/06/2014 06:50:35 -74.31,-110.26 83.10 72.19 69
2 01/06/2014 07:42:34 73.82, 58.26 96.35 01/06/2014 07:41:31 73.81, 58.25 96.35 0.91 63
3 01/06/2014 08:33:16 -73.80,-134.47 83.68 01/06/2014 08:32:28 -73.78,-134.41 83.70 2.69 48
4 01/06/2014 09:23:57 73.75, 32.75 96.27 01/06/2014 09:23:34 73.76, 32.87 96.28 3.84 23
5 01/06/2014 10:14:38 -73.77,-159.86 83.71 01/06/2014 10:14:32 -73.77,-159.92 83.71 1.83 6
6
